Find Starlink 35248

NORAD ID: 65598 Int'l Des: 2025-207 Owner: SPXS Country: US Constellation: starlink operational
LEOCIRCULARRETROGRADESSO

現在のビュー

3D地球を読み込み中...

About Starlink 35248

Starlink 35248 (NORAD 65598) is a starlink constellation satellite (v2 mini) launched Sep 13, 2025 by SPXS of US. It operates in LEO, CIRCULAR, RETROGRADE, SSO orbit with a mass of 575.00 kg.

Starlink 35248について

説明を読み込み中...

次回通過

Passes for default location (London). Set your location on the main map for personalized predictions.

高度履歴

Loading altitude history...

軌道要素

1 65598U 25207G 26195.62491925 -.00002216 00000-0 -14978-3 0 9995
2 65598 97.2824 261.7666 0001611 117.2919 242.8473 15.05646808 47363
Epoch: Jul 14, 2026 • Age: 8 hours

現在のステータス

高度 572.3 km
遠地点 / 近地点 N/A
速度 7.57 km/s
衛星直下点 -55.87°S, 0.78°W
打ち上げ日 Sep 13, 2025
運用期間 0.8 years
タイプ internet

技術仕様

分類 Payload
質量 575.00 kg
乾燥質量 530.00 kg
総質量 575.00 kg
長さ 0.30 m
直径 4.10 m
スパン 29.00 m
形状 Box + pan
製造者 SPXS
バスタイプ Starlink V2MO
フェーズステータス In Orbit
所有者/国 SPXS/US

Most Searched